Location: North Evanston
(42.0634°N, 87.6976°W)
Time: 03:24:29
(UTC+00:00)

Transit 2A Rocket - Pass Details

Date: 23 May 2026
Orbit: 589 x 893 km, 66.7° (Epoch: 9 June)

Event Time Altitude Azimuth Distance (km) Brightness Sun altitude
Rises 08:34:59 0° 319° (NW) 2,925 8.1 -16.4°
Reaches altitude 10° 08:37:34 10° 307° (NW) 1,978 7.1 -16.0°
Maximum altitude 08:41:16 27° 250° (WSW) 1,170 5.5 -15.6°
Enters shadow 08:41:34 26° 242° (WSW) 1,175 5.4 -15.6°
